STARLINK-2427, 47837

Orbit data source: Space-Track

STARLINK-2427, 47837 is a payload satellite owned by SpaceX/Seattle (US) in LEO that was launched on Thu, 11 Mar 2021 UTC via an FALCON 9 launch vehicle from the Air Force Eastern Test Range (AFETR). Payload-class satellites include a variety of spacecraft equipped with specific instruments for various scientific and technological missions. These include communications satellites like Starlink; space stations such as the ISS; scientific satellites like the Hubble; Earth observation satellites from companies like Planet Labs, Umbra, and HawkEye 360; GPS; miniature CubeSats for education and research; and military/defense satellites.

Loading next visibility...
Identifier
47837, 2021-018BC
Orbit
LEO
Country
Flag of USUS
Related business
Manufacturer
SpaceX/Seattle
Mission
Operational Commercial Communications
Bus & Motor
STARLINK, Unknown motor
Mass
260 kg wet, ~248 kg dry
Launch date (UTC)
2021-03-11 (5 years ago)
Launch vehicle
FALCON 9
Launch site
Air Force Eastern Test Range (AFETR)
Object type
Payload
Rocket body
Debris
Shape & HBR
Box + 1 Pan, 10.1 m
Radar Cross Section
13.562 m², Large (>1 m²)

Expand to show TLE details & history
Last TLE update: 23 hours ago

TLE from 23 hours ago
0 STARLINK-2427
1 47837U 21018BC  26247.65775820  .00020854  00000-0  66861-3 0  9991
2 47837  53.1592 126.1463 0000991 131.6870 228.4216 15.32331880304190
Epoch: 2026-09-04T15:47Z
TLE epoch observation values (Epoch: 2026-09-04T15:47:10.308Z)
Latitude
-0.00007°
Longitude
-94.42513°
Altitude
470.208 km
Speed
7.632 km/s
True Right ascension
08h 24m 35s
True Declination
0° 00' 00"
Sunlit
Object was in daylight at epoch
Visualization orbit readout
Latitude
Unknown
Longitude
Unknown
Altitude
Unknown
Speed
Unknown
Apparent Right ascension
Unknown
Apparent Declination
Unknown
Sunlit
N/A
Visualization observer readout
Local Sidereal Time
06:43:16
Azimuth
Unknown
Elevation
Unknown
Doppler factor
Unknown
Orbital elements
Apogee altitude
469.792 km
Perigee altitude
468.435 km
Semi-major axis
6,847.251 km
Eccentricity
0.0001
Inclination
53.1592°
RAAN
126.1463°
Arg. of periapsis
131.687°
True anomaly
228.41311°
Mean anomaly
228.4216°
Eccentric anomaly
228.41735°
Mean motion
3.83062 °/min
Orbital period
93.98 mins
BSTAR
0.00066861
Loading maneuver chart data...
Computing Atmospheric mass density...
Loading historical data...
Loading historical data...
Loading historical data...
Loading historical data...
Loading historical data...
Loading historical data...
Loading historical data...

Documentation

Showing up to 5 results
|